Wind_Speed
1 1 1 2 1 3 3 2 4 5 5 5 6 6 7 7 8 8 10 9 8 7 8 8 9 10 11 12 12 12 13 14 14 14 14 14 15 15 15 15 14 14 15 15 15 15 16 16 16
1 2 3 3 2 2 3 3 4 5 5 5 7 7 8 8 9 9 11 10 10 10 10 11 12 12 13 14 14 15 17 17 17 18 17 17 17 18 17 16 16 15 15 15 15 16 15 16 16
2 3 4 4 4 3 3 4 5 6 6 7 8 9 10 11 11 11 12 12 13 13 13 14 15 15 16 17 17 18 19 20 21 21 21 21 20 20 19 18 18 17 16 15 15 15 15 15 15
3 6 6 6 6 4 5 5 6 7 8 9 10 11 12 13 13 14 14 15 16 17 17 18 18 19 19 20 20 21 21 22 23 23 23 23 23 23 22 20 19 19 18 17 16 15 15 15 15
6 7 8 9 9 7 6 7 8 8 10 12 13 14 15 15 16 17 17 19 20 21 21 21 22 22 23 23 23 24 24 24 25 26 25 25 25 26 25 23 22 22 21 19 17 16 16 15 15
9 10 10 11 10 9 9 9 10 11 12 14 15 17 17 18 18 19 21 22 23 24 24 24 25 26 26 26 26 27 27 27 27 28 28 28 27 27 28 26 25 24 23 22 20 18 17 16 15
11 11 12 12 11 9 9 10 11 13 14 15 16 18 19 20 20 22 23 24 24 25 26 27 27 27 27 28 28 29 29 30 29 29 30 30 29 28 28 27 26 26 25 23 22 20 18 17 16
12 13 14 14 12 11 11 11 13 15 16 17 18 19 20 20 21 22 23 24 25 26 27 27 28 28 28 28 29 29 30 31 32 32 32 33 32 30 29 28 28 28 26 25 24 22 20 19 17
14 15 15 15 14 13 12 12 13 15 17 18 19 20 20 21 21 22 23 24 25 25 26 26 26 26 27 27 28 29 30 31 32 33 33 34 34 33 31 30 30 29 28 26 24 24 22 20 19
15 16 16 16 14 13 13 14 14 15 17 18 18 19 20 21 21 22 22 23 23 23 24 24 24 24 25 26 27 28 29 30 31 32 32 33 34 34 34 32 31 30 29 27 25 24 23 22 20
16 17 17 14 13 13 14 14 15 16 17 17 18 19 20 21 21 21 21 21 22 22 23 23 23 23 24 24 25 26 28 29 30 31 32 33 33 34 34 34 32 31 31 29 27 25 24 23 22
16 17 14 12 11 12 14 14 15 16 17 18 19 20 21 21 20 20 21 21 21 21 22 22 22 22 23 23 23 24 25 26 28 29 31 31 32 33 34 34 33 32 32 31 29 27 27 25 24
18 18 14 10 11 12 14 14 14 16 17 18 19 20 20 20 20 20 20 20 19 19 20 20 20 21 21 21 20 21 22 24 25 27 28 30 32 33 33 34 33 33 32 32 31 29 28 27 26
19 19 16 12 11 12 12 12 13 14 16 16 17 18 18 18 18 18 18 18 19 19 19 19 19 19 19 19 19 19 20 21 23 25 27 28 29 31 32 34 34 33 33 33 33 31 29 29 28
19 16 14 12 12 12 11 11 12 14 15 15 15 15 15 16 16 16 17 18 18 19 19 19 19 19 18 18 18 18 18 19 20 22 23 25 27 28 30 31 32 33 32 33 33 33 31 31 30
18 14 13 12 11 10 9 10 12 12 13 12 12 12 13 14 14 15 16 17 18 19 19 19 19 18 18 17 16 16 16 16 17 18 20 22 24 26 27 29 30 30 31 31 33 34 33 32 32
17 15 14 12 10 11 10 10 10 11 11 10 10 11 12 12 12 14 15 16 17 18 19 19 19 19 19 18 17 16 16 15 15 15 16 17 20 22 25 26 27 28 29 29 31 32 33 32 32
16 14 14 13 11 10 8 8 9 9 8 8 9 10 10 10 12 13 15 16 17 18 19 20 20 20 19 18 18 17 16 15 15 14 13 14 15 18 21 23 25 26 27 28 29 30 31 32 33
15 14 14 12 11 10 8 7 8 8 7 7 8 9 9 10 12 13 15 16 17 18 19 20 20 20 20 20 19 18 17 16 15 14 12 11 11 13 15 18 21 23 25 26 28 28 30 31 32
14 13 13 13 11 9 8 7 6 5 5 5 7 8 9 10 11 13 14 15 16 18 18 20 20 20 20 20 20 20 19 17 16 15 13 11 9 9 11 14 16 19 22 24 26 27 28 29 31
13 13 12 12 11 9 7 6 5 3 2 4 6 7 8 9 10 12 13 15 16 17 18 19 20 20 21 21 21 20 19 19 17 16 14 12 10 9 8 10 13 15 18 20 23 25 26 28 30
12 11 11 11 10 9 7 5 3 2 0 3 5 6 7 8 9 11 13 14 16 17 18 19 20 21 21 21 21 21 20 20 19 18 17 14 11 9 8 9 10 12 14 17 20 23 25 27 29
10 10 10 10 9 7 6 5 3 2 2 2 4 5 6 7 9 10 12 13 14 16 17 19 20 21 21 22 22 22 21 21 20 19 18 16 14 11 9 8 9 11 12 15 18 20 23 26 28
11 10 11 10 9 8 6 5 4 5 3 3 3 4 5 6 8 9 10 12 13 15 17 18 19 20 21 21 22 22 22 22 21 21 20 18 16 14 12 10 9 9 10 12 15 18 20 23 27
12 11 11 11 10 10 7 6 6 5 4 4 3 3 4 5 6 8 9 11 12 14 16 17 18 19 20 21 21 22 22 22 22 22 21 20 19 17 14 12 10 9 9 10 13 16 18 21 24
13 12 12 12 12 11 9 7 6 6 5 4 3 3 3 4 5 7 8 10 12 13 15 16 17 18 19 20 21 21 22 22 22 22 21 21 20 19 17 14 12 11 10 10 11 13 16 19 22
12 12 12 13 13 12 9 8 7 6 5 4 4 3 3 3 4 6 7 9 11 13 14 16 17 18 19 20 21 21 22 22 22 22 22 22 21 20 18 16 14 12 11 11 11 12 14 17 20
12 12 12 13 13 12 10 9 8 7 5 5 4 3 2 3 3 5 7 9 11 12 14 15 16 18 19 20 20 21 22 22 22 23 22 22 22 21 19 18 17 15 14 13 12 11 12 14 17
12 12 12 12 13 12 11 9 9 8 7 6 4 3 2 1 3 4 6 8 11 12 14 15 16 18 19 20 20 21 22 22 22 22 22 22 22 21 20 19 18 18 16 15 14 13 12 13 15
13 13 12 12 12 12 11 8 10 9 8 7 6 4 2 1 3 5 7 9 10 12 14 15 17 18 19 20 21 21 22 22 22 22 22 22 22 21 20 20 19 19 18 17 16 14 13 12 13
Wind_Direction
22 360 338 325 69 60 58 38 30 24 17 4 353 348 343 338 334 326 316 308 310 307 303 295 289 283 282 281 279 274 270 269 270 271 271 269 270 272 273 273 270 270 269 266 265 263 261 258 257
290 310 296 300 344 19 24 26 24 6 354 347 342 341 334 327 327 321 310 307 307 305 302 294 289 284 280 277 277 274 269 266 266 266 267 265 264 265 268 269 268 268 267 265 264 263 260 259 257
281 288 288 313 317 322 347 3 355 347 343 336 329 327 324 319 317 312 307 303 299 299 296 291 286 282 277 275 274 272 269 266 264 264 264 263 262 264 266 266 266 265 264 262 262 261 259 259 258
270 273 290 297 300 294 318 325 334 338 331 325 319 316 315 313 310 306 301 298 295 293 291 287 284 280 277 274 271 270 268 265 263 262 263 263 260 260 262 263 263 263 262 260 260 260 258 258 257
262 263 278 289 294 297 312 320 327 329 322 318 314 312 312 310 306 302 298 296 294 292 288 285 282 279 276 273 271 269 267 266 265 261 262 262 259 258 258 259 258 259 258 258 258 257 255 255 255
257 268 278 287 289 294 305 315 317 320 319 314 312 310 309 307 303 300 297 294 293 291 289 286 282 279 276 273 270 267 265 265 264 262 262 262 260 258 257 258 257 256 256 255 256 254 253 252 252
260 269 277 284 288 293 302 309 310 313 313 312 310 308 308 306 304 302 299 296 294 291 290 288 284 281 277 274 271 267 264 263 262 260 260 260 259 259 257 258 258 257 256 254 254 252 250 249 248
261 266 271 281 286 290 302 306 310 312 313 312 310 309 309 308 306 304 301 299 296 294 291 288 285 282 280 276 272 268 264 261 260 258 258 258 256 257 256 257 257 255 254 254 252 249 247 245 244
258 264 271 279 282 290 299 304 310 312 312 312 312 313 313 311 309 307 304 302 300 297 295 293 291 287 282 277 273 269 266 263 261 258 257 257 255 254 254 256 255 254 252 252 251 247 246 242 241
258 263 268 274 276 288 298 306 311 312 311 312 314 314 314 314 312 311 309 308 306 304 301 298 296 293 288 283 277 272 269 266 263 260 258 256 254 253 252 253 253 253 251 249 249 247 246 241 238
256 264 267 271 280 291 296 305 312 313 314 316 317 318 318 318 318 317 316 315 312 309 306 302 300 297 294 290 284 278 273 269 265 261 258 256 254 251 251 250 250 251 249 248 249 248 244 240 238
253 259 265 274 281 291 298 307 314 315 317 320 322 324 325 326 327 325 324 322 319 316 312 308 305 302 298 294 289 283 278 273 269 264 260 256 253 251 250 250 249 250 248 248 249 248 244 241 240
250 259 261 267 282 294 302 310 315 317 320 323 326 329 331 332 332 332 331 331 330 326 323 320 315 311 307 302 296 290 284 277 272 268 263 257 254 252 250 249 249 249 248 246 245 245 242 241 242
252 263 271 278 289 294 303 309 313 317 321 325 329 333 336 337 338 340 342 344 342 338 335 332 327 322 318 311 304 298 292 285 277 271 266 261 256 253 250 248 247 247 246 244 243 243 241 239 239
255 260 271 276 278 288 298 304 314 320 322 328 334 339 343 344 345 349 351 350 350 348 345 341 337 333 328 323 316 310 302 294 284 276 269 263 258 254 251 249 247 245 244 243 241 241 241 240 239
258 264 269 275 281 293 300 308 318 321 325 333 343 350 353 351 353 356 357 357 358 357 355 352 348 344 340 335 330 324 317 308 298 287 276 267 259 254 250 248 247 244 242 242 241 240 241 240 238
263 269 267 274 284 298 302 311 320 324 331 341 353 2 2 0 1 2 3 4 5 4 2 360 357 354 352 349 343 337 330 324 315 303 289 275 264 256 251 247 246 245 243 242 241 239 239 238 237
261 271 273 276 285 298 303 315 327 328 338 352 7 14 14 9 7 7 8 9 9 8 6 4 3 2 1 -0 357 352 347 341 335 324 308 289 274 261 254 249 246 245 244 242 240 238 238 237 236
255 265 273 283 289 300 316 329 330 332 342 0 19 25 22 15 12 11 12 13 13 11 9 9 8 6 6 5 3 2 358 353 348 342 332 311 287 269 258 251 248 246 244 243 240 238 237 236 235
253 265 276 284 291 299 312 324 324 326 342 12 31 31 27 19 15 15 17 18 16 13 12 13 12 12 11 10 9 7 6 4 1 358 350 337 315 287 267 256 251 248 246 243 241 239 237 236 235
251 263 274 281 289 294 306 313 311 314 345 27 37 34 29 20 18 21 22 20 17 16 16 16 16 16 15 14 13 12 11 10 8 6 2 354 340 318 292 269 258 253 249 246 242 240 238 237 236
252 258 267 276 280 290 296 291 281 264 13 44 42 36 28 25 25 26 25 23 21 21 20 20 19 19 18 17 16 16 14 13 11 9 7 3 354 338 316 290 270 261 254 248 244 240 239 238 236
249 254 262 271 274 276 273 255 227 204 162 88 58 38 30 30 29 28 26 24 23 23 22 21 21 20 20 19 18 17 17 16 14 12 9 7 2 354 339 317 290 273 264 256 248 244 240 238 237
245 249 256 261 263 258 248 219 186 174 157 111 75 47 36 32 32 29 27 24 22 21 20 20 19 19 19 19 19 18 18 17 15 14 12 9 6 0 351 337 319 296 277 265 254 248 245 242 239
244 248 251 253 250 243 234 203 170 161 143 117 93 67 49 42 34 28 25 22 20 19 18 17 17 17 17 17 17 16 15 14 13 12 10 9 6 2 356 347 336 319 300 282 266 256 251 246 243
241 245 250 250 250 242 229 195 172 155 141 129 114 92 68 48 36 29 24 20 17 16 14 13 13 13 13 13 12 12 12 12 11 11 10 8 6 4 1 356 347 333 319 303 285 270 259 252 247
239 244 248 247 249 240 224 195 174 166 155 146 133 116 83 54 36 26 20 16 13 11 10 9 8 8 7 7 6 7 8 9 9 9 9 8 7 6 4 2 357 347 334 320 304 287 271 261 254
237 240 238 239 242 239 225 201 189 180 169 153 142 127 96 61 32 17 11 8 6 5 3 3 3 3 2 2 2 2 4 4 5 5 5 5 5 5 4 3 1 356 348 337 323 307 289 273 261
232 233 234 235 236 233 224 199 193 186 176 168 165 156 130 55 8 359 358 358 357 357 356 356 357 357 357 357 358 358 359 0 0 1 2 2 2 2 2 2 359 357 353 346 336 323 309 290 272
233 230 228 230 232 228 219 199 198 189 182 181 182 184 189 302 332 338 343 346 347 348 348 349 350 352 353 354 354 355 356 358 358 359 359 0 1 1 1 0 359 357 353 348 342 333 323 310 290
Height
5910 5909 5907 5905 5905 5906 5906 5906 5906 5906 5905 5904 5903 5902 5901 5901 5901 5902 5898 5895 5894 5893 5892 5892 5891 5891 5891 5890 5890 5889 5889 5889 5888 5888 5888 5888 5888 5888 5888 5888 5888 5888 5888 5888 5888 5888 5888 5888 5888
5910 5909 5907 5906 5905 5905 5906 5906 5905 5905 5904 5903 5902 5901 5900 5899 5899 5898 5895 5893 5891 5891 5890 5890 5889 5889 5888 5888 5887 5887 5886 5886 5885 5885 5885 5885 5885 5885 5885 5886 5886 5886 5885 5885 5886 5886 5886 5886 5886
5910 5908 5905 5905 5905 5906 5906 5905 5905 5904 5903 5902 5901 5900 5899 5898 5897 5895 5893 5892 5890 5889 5888 5887 5887 5886 5885 5885 5884 5883 5883 5882 5882 5882 5882 5882 5882 5882 5882 5882 5883 5883 5883 5883 5883 5883 5883 5883 5883
5909 5907 5905 5905 5905 5905 5905 5904 5904 5903 5902 5901 5900 5899 5897 5896 5895 5893 5891 5889 5888 5886 5885 5884 5883 5882 5881 5880 5880 5879 5878 5878 5878 5877 5877 5877 5878 5878 5878 5879 5879 5879 5880 5880 5880 5880 5881 5881 5881
5907 5906 5905 5904 5904 5903 5903 5902 5903 5902 5901 5899 5898 5896 5894 5893 5891 5890 5888 5886 5884 5883 5881 5880 5878 5877 5876 5875 5875 5874 5874 5873 5873 5873 5872 5873 5873 5874 5874 5875 5875 5876 5876 5877 5877 5877 5878 5878 5879
5906 5904 5904 5903 5903 5902 5902 5901 5901 5900 5899 5897 5896 5894 5892 5890 5888 5886 5884 5882 5880 5878 5876 5874 5873 5871 5870 5869 5869 5868 5868 5867 5867 5867 5867 5867 5868 5868 5869 5870 5871 5871 5872 5873 5874 5874 5875 5875 5876
5905 5903 5902 5902 5901 5901 5900 5899 5899 5898 5897 5895 5893 5891 5889 5887 5884 5882 5879 5877 5875 5872 5870 5868 5867 5865 5864 5863 5862 5861 5861 5861 5861 5861 5861 5861 5862 5863 5864 5864 5865 5867 5868 5869 5870 5870 5872 5872 5873
5902 5902 5900 5900 5899 5899 5899 5897 5896 5895 5894 5892 5890 5888 5885 5883 5880 5877 5875 5872 5869 5867 5864 5862 5860 5859 5857 5856 5855 5854 5854 5854 5854 5854 5854 5855 5855 5856 5858 5858 5860 5861 5863 5864 5865 5866 5868 5869 5870
5899 5900 5898 5897 5897 5897 5896 5895 5894 5892 5890 5888 5886 5884 5881 5879 5876 5873 5870 5867 5864 5861 5859 5856 5854 5852 5850 5849 5847 5846 5846 5846 5846 5846 5847 5848 5848 5850 5851 5852 5854 5855 5857 5859 5860 5862 5863 5865 5866
5897 5896 5895 5894 5894 5894 5893 5892 5891 5890 5887 5885 5883 5880 5878 5875 5872 5869 5866 5862 5859 5856 5853 5851 5848 5846 5844 5842 5841 5839 5839 5838 5838 5839 5839 5840 5841 5842 5844 5846 5847 5849 5851 5853 5855 5857 5859 5861 5863
5892 5892 5891 5890 5890 5890 5890 5889 5888 5886 5884 5882 5880 5877 5874 5871 5868 5865 5861 5858 5855 5852 5848 5845 5843 5840 5838 5836 5834 5832 5831 5831 5831 5831 5831 5832 5833 5834 5836 5838 5841 5842 5845 5847 5850 5852 5854 5856 5858
5889 5888 5887 5887 5887 5887 5886 5885 5884 5882 5881 5878 5876 5873 5870 5867 5864 5860 5857 5854 5851 5847 5844 5841 5838 5835 5832 5830 5828 5826 5824 5824 5823 5823 5823 5824 5825 5827 5829 5831 5833 5835 5838 5841 5844 5846 5849 5851 5854
5886 5886 5884 5885 5885 5884 5884 5883 5881 5879 5877 5875 5872 5869 5866 5863 5860 5857 5854 5850 5847 5844 5840 5836 5833 5830 5827 5824 5822 5820 5818 5817 5816 5815 5815 5816 5817 5819 5821 5823 5826 5828 5831 5834 5837 5840 5843 5846 5848
5882 5882 5881 5881 5881 5881 5881 5880 5879 5876 5874 5872 5869 5866 5863 5861 5857 5854 5851 5848 5844 5841 5837 5833 5830 5826 5823 5820 5817 5815 5812 5811 5809 5808 5808 5808 5809 5811 5813 5815 5818 5821 5824 5827 5830 5833 5836 5839 5842
5878 5879 5879 5878 5879 5878 5878 5878 5876 5874 5872 5869 5867 5864 5862 5859 5856 5853 5849 5846 5842 5838 5835 5831 5827 5823 5819 5816 5813 5810 5807 5805 5803 5802 5801 5801 5802 5803 5805 5808 5810 5813 5816 5819 5823 5826 5830 5833 5836
5874 5875 5876 5877 5877 5876 5877 5876 5874 5871 5869 5866 5864 5862 5860 5857 5854 5852 5849 5845 5841 5837 5833 5829 5825 5821 5817 5813 5810 5806 5803 5801 5798 5796 5795 5795 5795 5796 5798 5801 5803 5806 5809 5812 5816 5819 5823 5826 5830
5872 5873 5873 5874 5874 5874 5874 5873 5871 5868 5866 5864 5863 5861 5859 5856 5854 5851 5848 5844 5840 5836 5832 5828 5824 5819 5815 5811 5807 5804 5800 5797 5794 5792 5790 5789 5789 5790 5792 5794 5796 5799 5802 5805 5809 5812 5816 5819 5823
5870 5871 5870 5871 5871 5872 5871 5869 5867 5865 5864 5862 5861 5859 5858 5856 5853 5850 5847 5843 5839 5836 5832 5827 5823 5819 5814 5810 5806 5802 5798 5795 5792 5789 5786 5785 5784 5785 5786 5788 5790 5793 5796 5799 5802 5805 5809 5812 5816
5867 5868 5868 5869 5869 5869 5867 5866 5865 5863 5862 5861 5859 5858 5857 5855 5853 5850 5846 5843 5839 5835 5832 5827 5823 5818 5814 5809 5805 5801 5797 5794 5790 5787 5784 5782 5781 5781 5782 5783 5785 5787 5790 5793 5796 5799 5802 5805 5809
5864 5865 5866 5867 5866 5865 5864 5863 5863 5862 5861 5859 5858 5857 5856 5854 5852 5849 5846 5842 5839 5836 5832 5828 5823 5819 5814 5810 5805 5801 5797 5793 5790 5786 5783 5781 5779 5778 5779 5780 5781 5783 5785 5787 5790 5792 5795 5798 5802
5862 5863 5863 5863 5863 5862 5862 5862 5861 5860 5859 5858 5857 5856 5855 5854 5852 5849 5846 5843 5839 5836 5832 5828 5824 5819 5815 5810 5806 5802 5797 5794 5790 5786 5783 5780 5778 5777 5776 5777 5777 5779 5780 5781 5784 5786 5789 5792 5795
5860 5860 5860 5860 5860 5860 5860 5860 5860 5859 5858 5857 5856 5855 5855 5853 5851 5849 5846 5843 5840 5837 5833 5829 5824 5820 5815 5811 5807 5802 5798 5794 5790 5786 5783 5780 5778 5776 5774 5774 5774 5775 5775 5777 5778 5781 5783 5786 5789
5857 5857 5858 5858 5858 5858 5858 5859 5859 5858 5857 5856 5855 5855 5854 5853 5851 5849 5846 5844 5841 5838 5834 5830 5825 5821 5817 5812 5808 5803 5799 5795 5791 5787 5783 5780 5777 5775 5773 5772 5771 5771 5771 5772 5773 5775 5777 5779 5782
5854 5856 5856 5856 5856 5856 5856 5857 5857 5856 5856 5855 5854 5854 5853 5852 5851 5849 5847 5844 5842 5838 5835 5831 5827 5822 5818 5814 5809 5805 5801 5796 5792 5788 5784 5780 5777 5774 5772 5770 5769 5768 5767 5768 5768 5770 5771 5773 5775
5852 5854 5854 5854 5854 5854 5854 5854 5855 5854 5854 5854 5854 5853 5853 5852 5851 5849 5847 5845 5842 5839 5835 5832 5828 5824 5819 5815 5811 5806 5802 5797 5793 5789 5785 5781 5777 5773 5770 5768 5766 5765 5764 5764 5764 5765 5765 5767 5769
5849 5851 5852 5852 5852 5852 5852 5852 5853 5853 5853 5853 5853 5853 5852 5852 5851 5849 5847 5845 5842 5839 5836 5832 5828 5824 5820 5816 5812 5808 5803 5799 5794 5790 5785 5781 5777 5773 5769 5767 5765 5763 5762 5761 5760 5760 5760 5761 5763
5846 5847 5849 5850 5850 5850 5850 5850 5851 5850 5851 5851 5852 5852 5852 5851 5850 5849 5847 5845 5842 5839 5836 5833 5829 5825 5821 5817 5813 5808 5804 5800 5795 5791 5786 5781 5777 5773 5769 5766 5763 5761 5759 5758 5757 5756 5756 5756 5757
5844 5844 5845 5846 5847 5847 5847 5848 5849 5849 5850 5850 5851 5851 5851 5851 5850 5849 5847 5845 5842 5839 5836 5833 5829 5825 5821 5817 5813 5809 5804 5800 5795 5791 5786 5782 5777 5773 5769 5765 5763 5760 5758 5755 5754 5752 5751 5750 5751
5841 5842 5842 5843 5844 5845 5845 5849 5848 5848 5849 5849 5850 5850 5850 5850 5849 5848 5846 5844 5842 5839 5836 5832 5829 5825 5821 5817 5813 5809 5804 5800 5796 5791 5786 5782 5777 5773 5769 5765 5762 5759 5756 5753 5751 5749 5747 5746 5745
5838 5839 5840 5841 5842 5842 5843 5849 5846 5847 5847 5848 5849 5849 5849 5849 5848 5847 5845 5843 5841 5838 5835 5832 5828 5825 5821 5817 5813 5808 5804 5800 5795 5791 5786 5782 5777 5773 5769 5765 5761 5758 5754 5751 5748 5745 5743 5741 5740